IRIDIUM 139

Last updated on Sun Jun 21 2026 00:03:14 GMT+0000 (Coordinated Universal Time)

1 42963U 17061J 26171.32970705 .00000017 00000+0 -11454-5 0 9997 2 42963 86.3965 24.0052 0001972 88.6940 271.4482 14.34217601455292
UTC large
Height (km)
Speed (km/s)
/
Latitude / Longitude
Inclination (degrees)
Orbital Period (minutes)
Azimuth
Elevation
Range (km)
Doppler Factor

Next 0 passes for location: London (51.5072 / 0.1276)

No passes found over London.
IRIDIUM 139